This is the latest recevied weather packets stored in our database for station/object SR6WXP. If no packets are shown the sender has not sent any weather packets the latest 1 day(s).
| Time | Temp. | Humidity | Pressure | Rain* | Wind** | Luminosity | Snow |
|---|---|---|---|---|---|---|---|
| 1778008806 | 21.11° C | 40% | 982.4 hPa | - | 0.89 m/s, 157° | - | - |
| 1778008564 | 21.11° C | 40% | 982.4 hPa | - | 0.89 m/s, 134° | - | - |
| 1778008322 | 21.67° C | 40% | 982.5 hPa | - | 0.45 m/s, 163° | - | - |
| 1778007842 | 21.67° C | 39% | 982.5 hPa | - | 0.89 m/s, 141° | - | - |
| 1778007602 | 21.67° C | 38% | 982.4 hPa | - | 0.45 m/s, 148° | - | - |
| 1778007360 | 21.67° C | 38% | 982.4 hPa | - | 0.45 m/s, 147° | - | - |
| 1778007119 | 22.22° C | 38% | 982.5 hPa | - | 0.45 m/s, 133° | - | - |
| 1778006879 | 22.22° C | 37% | 982.5 hPa | - | 0.45 m/s, 140° | - | - |
| 1778006639 | 22.22° C | 37% | 982.4 hPa | - | 0.45 m/s, 135° | - | - |
| 1778006399 | 22.78° C | 36% | 982.4 hPa | - | 0.45 m/s, 138° | - | - |
| 1778006157 | 22.78° C | 36% | 982.4 hPa | - | 0.89 m/s, 134° | - | - |
| 1778005917 | 22.78° C | 36% | 982.5 hPa | - | 0.89 m/s, 138° | - | - |
| 1778005677 | 23.33° C | 36% | 982.5 hPa | - | 1.34 m/s, 133° | - | - |
| 1778005437 | 23.33° C | 35% | 982.5 hPa | - | 1.34 m/s, 142° | - | - |
| 1778005197 | 23.33° C | 35% | 982.5 hPa | - | 1.79 m/s, 134° | - | - |
| 1778004955 | 23.89° C | 34% | 982.5 hPa | - | 0.89 m/s, 129° | - | - |
| 1778004715 | 23.89° C | 34% | 982.4 hPa | - | 1.34 m/s, 129° | - | - |
| 1778004475 | 24.44° C | 34% | 982.4 hPa | - | 0.89 m/s, 133° | - | - |
| 1778004233 | 24.44° C | 33% | 982.4 hPa | - | 0.89 m/s, 137° | - | - |
| 1778003993 | 25° C | 33% | 982.4 hPa | - | 1.34 m/s, 125° | - | - |
| 1778003751 | 25° C | 33% | 982.4 hPa | - | 1.34 m/s, 137° | - | - |
| 1778003511 | 25.56° C | 33% | 982.4 hPa | - | 1.79 m/s, 123° | - | - |
| 1778003271 | 26.11° C | 32% | 982.4 hPa | - | 1.34 m/s, 128° | - | - |
| 1778003031 | 26.11° C | 32% | 982.4 hPa | - | 1.34 m/s, 127° | - | - |
| 1778002791 | 26.67° C | 32% | 982.4 hPa | - | 0.45 m/s, 136° | - | - |
* Rain since midnight (hover to see other rain measurements)
** Current wind speed in m/s (hover to see current wind gust speed)